Carbondale, IL

8:23 AM CDT on April 22, 2018 (GMT -0500)
Southern Illinois

Weather History for KMDH - May, 2014

Change the Weather History Date:

Saturday, May 17, 2014

  Actual Average Record
Temperature  
Mean Temperature 51 °F -  
Max Temperature 63 °F 78 °F 95 °F (1911)
Min Temperature 39 °F 53 °F 39 °F (1929)
Degree Days  
Heating Degree Days 14    
Growing Degree Days 1 (Base 50)    
Moisture  
Dew Point 39 °F    
Average Humidity 77    
Maximum Humidity 97    
Minimum Humidity 38    
Precipitation  
Precipitation 0.00 in - - ()
Sea Level Pressure  
Sea Level Pressure 30.18 in    
Wind  
Wind Speed 1 mph (NE)    
Max Wind Speed 9 mph    
Max Gust Speed -    
Visibility 6 miles    
Events Fog    
Averages and records for this station are not official NWS values.
T = Trace of Precipitation, MM = Missing Value Source: NWS Daily Summary

Daily Weather History Graph

Daily Weather History Graph

Search for Another Location

Airport or City:

Astronomy

May. 17, 2014 Rise Set
Actual Time 5:45 AM CDT 8:01 PM CDT
Civil Twilight 5:15 AM CDT 8:31 PM CDT
Nautical Twilight 4:39 AM CDT 9:07 PM CDT
Astronomical Twilight 3:59 AM CDT 9:47 PM CDT
Moon 11:02 PM CDT (5/17) 8:28 AM CDT (5/17)
Length of Visible Light 15h 15m
Length of Day
14h 16m
Waning Gibbous, 89% of the Moon is Illuminated
May 17
Waning Gibbous
May 21
Last Quarter
May 28
New
Jun 5
First Quarter
Jun 12
Full

Hourly Weather History & Observations

Time (CDT) Temp. Dew Point Humidity Pressure Visibility Wind Dir Wind Speed Gust Speed Precip Events Conditions
12:52 AM 44.1 °F 41.0 °F 89% 30.15 in 10.0 mi Calm Calm - N/A   Clear
1:52 AM 43.0 °F 41.0 °F 93% 30.15 in 10.0 mi Calm Calm - N/A   Clear
2:52 AM 41.0 °F 39.0 °F 93% 30.16 in 10.0 mi Calm Calm - N/A   Clear
3:52 AM 41.0 °F 39.9 °F 96% 30.16 in 6.0 mi Calm Calm - N/A   Clear
4:37 AM 39.9 °F 39.0 °F 97% 30.15 in 2.5 mi Calm Calm - N/A   Clear
4:44 AM 39.9 °F 37.9 °F 93% 30.15 in 0.8 mi Calm Calm - N/A   Clear
4:52 AM 39.0 °F 37.9 °F 96% 30.16 in 0.5 mi Calm Calm - N/A Fog Fog
4:59 AM 39.9 °F 37.9 °F 93% 30.15 in 1.0 mi Calm Calm - N/A   Mist
5:07 AM 39.9 °F 37.9 °F 93% 30.15 in 6.0 mi Calm Calm - N/A   Mostly Cloudy
5:14 AM 39.0 °F 37.0 °F 93% 30.15 in 1.5 mi Calm Calm - N/A   Mostly Cloudy
5:22 AM 39.0 °F 37.0 °F 93% 30.16 in 0.5 mi Calm Calm - N/A Fog Fog
5:38 AM 41.0 °F 37.9 °F 89% 30.16 in 0.8 mi Calm Calm - N/A   Mist
5:44 AM 39.9 °F 37.9 °F 93% 30.16 in 0.2 mi Calm Calm - N/A Fog Fog
5:52 AM 39.0 °F 37.9 °F 96% 30.17 in 0.2 mi Calm Calm - N/A Fog Fog
6:06 AM 39.0 °F 37.9 °F 96% 30.17 in 0.2 mi Calm Calm - N/A Fog Fog
6:18 AM 39.9 °F 37.9 °F 93% 30.18 in 0.8 mi Calm Calm - N/A   Mist
6:38 AM 41.0 °F 39.9 °F 96% 30.19 in 0.2 mi Calm Calm - N/A Fog Fog
6:52 AM 42.1 °F 41.0 °F 96% 30.19 in 0.2 mi Calm Calm - N/A Fog Fog
7:06 AM 42.1 °F 41.0 °F 96% 30.19 in 0.5 mi Calm Calm - N/A Fog Fog
7:19 AM 43.0 °F 42.1 °F 97% 30.19 in 0.8 mi Calm Calm - N/A   Mist
7:35 AM 45.0 °F 44.1 °F 97% 30.20 in 2.0 mi Calm Calm - N/A   Mostly Cloudy
7:41 AM 46.0 °F 44.1 °F 93% 30.20 in 9.0 mi Calm Calm - N/A   Scattered Clouds
7:52 AM 46.0 °F 45.0 °F 96% 30.20 in 10.0 mi Calm Calm - N/A   Partly Cloudy
8:52 AM 52.0 °F 41.0 °F 66% 30.21 in 10.0 mi Variable 3.5 mph - N/A   Clear
9:52 AM 55.0 °F 37.9 °F 53% 30.21 in 10.0 mi Calm Calm - N/A   Clear
10:52 AM 57.9 °F 36.0 °F 44% 30.21 in 10.0 mi Variable 4.6 mph - N/A   Clear
11:52 AM 59.0 °F 35.1 °F 41% 30.22 in 10.0 mi North 8.1 mph - N/A   Scattered Clouds
12:52 PM 62.1 °F 37.9 °F 41% 30.21 in 10.0 mi Variable 3.5 mph - N/A   Scattered Clouds
1:52 PM 61.0 °F 35.1 °F 38% 30.20 in 10.0 mi Variable 5.8 mph - N/A   Clear
2:52 PM 62.1 °F 36.0 °F 38% 30.19 in 10.0 mi Variable 3.5 mph - N/A   Scattered Clouds
3:52 PM 62.1 °F 37.0 °F 39% 30.19 in 10.0 mi North 9.2 mph - N/A   Partly Cloudy
4:52 PM 63.0 °F 37.0 °F 38% 30.18 in 10.0 mi NNW 6.9 mph - N/A   Clear
5:52 PM 62.1 °F 36.0 °F 38% 30.18 in 10.0 mi NNE 4.6 mph - N/A   Clear
6:52 PM 60.1 °F 37.0 °F 42% 30.19 in 10.0 mi NE 4.6 mph - N/A   Clear
7:52 PM 55.0 °F 44.1 °F 67% 30.20 in 10.0 mi East 4.6 mph - N/A   Clear
8:52 PM 53.1 °F 44.1 °F 71% 30.21 in 10.0 mi ENE 5.8 mph - N/A   Clear
9:52 PM 52.0 °F 43.0 °F 71% 30.22 in 10.0 mi East 4.6 mph - N/A   Clear
10:52 PM 50.0 °F 43.0 °F 77% 30.23 in 10.0 mi East 5.8 mph - N/A   Clear
11:52 PM 48.9 °F 41.0 °F 74% 30.24 in 10.0 mi East 5.8 mph - N/A   Clear